Flag for Chile Weather past 2 weeks in Antofagasta, Chile

Now
61 °F

Passing clouds.


Feels Like: 61 °F
Forecast: 62 / 76 °F
Wind: 6 mph from Southwest

Location: Antofagasta Airport


UV Index: 5 (Moderate)

Visibility: N/A


Pressure: 29.92 "Hg

Humidity: 77%

Dew point: 54 °F

Location of AntofagastaLocation

Historic Weather in Antofagasta

°F

Antofagasta temperature yesterday

Maximum temperature yesterday: 66 °F (at 2:00 PM)
Minimum temperature yesterday: 61 °F (at 12:00 AM)
Average temperature yesterday: 62 °F

Past Weeks' High & Low Weather Summary

 TemperatureHumidityPressure
High72 °F (Apr 13, 2:00 PM)88% (Apr 7, 1:00 AM)30.04 "Hg (Apr 7, 1:00 AM)
Low57 °F (Apr 5, 3:00 AM)47% (Apr 13, 2:00 PM)29.83 "Hg (Apr 14, 4:00 PM)
Average62 °F72%29.94 "Hg
* Reported Apr 4 2:00 AM — Apr 19 2:00 AM, Antofagasta, Weather by CustomWeather, © 2014

Note: Actual official high and low records may vary slightly from our data, if they occured in-between our weather recording intervals... More about our weather records

Advertising

Historic Weather Conditions — Data for Previous 24 hours

 ConditionsComfort  
Time TempWeatherWind HumidityBarometerVisibility
2:00 AM
Apr 19
61 °FPassing clouds.6 mph77%29.92 "HgN/A
1:00 AM61 °FPassing clouds.2 mph77%29.95 "HgN/A
12:00 AM63 °FPassing clouds.5 mph73%29.95 "HgN/A
11:00 PM
Apr 18
63 °FPassing clouds.8 mph73%29.92 "HgN/A
10:00 PM63 °FPassing clouds.7 mph73%29.92 "HgN/A
9:00 PM63 °FPassing clouds.10 mph73%29.89 "HgN/A
8:00 PM63 °FPassing clouds.10 mph73%29.89 "HgN/A
7:00 PM63 °FPassing clouds.10 mph73%29.89 "HgN/A
6:00 PM64 °FScattered clouds.13 mph68%29.89 "HgN/A
5:00 PM64 °FPassing clouds.14 mph68%29.86 "HgN/A
4:00 PM64 °FPassing clouds.13 mph68%29.89 "HgN/A
3:00 PM64 °FPassing clouds.14 mph68%29.89 "HgN/A
2:00 PM66 °FPassing clouds.13 mph64%29.89 "HgN/A
1:00 PM64 °FPassing clouds.10 mph68%29.92 "HgN/A
12:00 PM64 °FScattered clouds.8 mph68%29.92 "HgN/A
11:00 AM63 °FPartly sunny.6 mph73%29.95 "HgN/A
10:00 AM63 °FPartly sunny.3 mph68%29.92 "HgN/A
9:00 AM61 °FPartly sunny.7 mph77%29.92 "HgN/A
8:00 AM61 °FPartly sunny.5 mph72%29.92 "HgN/A
7:00 AM61 °FOvercast.5 mph77%29.92 "HgN/A
6:00 AM61 °FOvercast.5 mph77%29.92 "HgN/A
5:00 AM61 °FOvercast.1 mph77%29.95 "HgN/A
4:00 AM61 °FOvercast.2 mph77%29.95 "HgN/A
3:00 AM61 °FOvercast.No wind77%29.98 "HgN/A
Weather by CustomWeather, © 2014

See weather overview